This demonstration page uses our WeatherBlox Daily Observations layout. Learn more.

Left ArrowRight Arrow

Hourly Observations for September 19, 2015

Temp ( °F °C ) Dew Point ( °F °C ) Humidity (%) Winds ( mph kmh ) Pressure ( in mb ) Visibility ( mi km ) Precip ( " mm )
12:52 am 00:52 Mostly Clear 51 10.6 50 10 96 96 NNW 7 11 30.07 1018 10 16 0.00 0.00
1:52 am 01:52 Mostly Clear 50 10 49 9.4 96 96 NNW 6 9 30.07 1018 10 16 0.00 0.00
2:52 am 02:52 Clear 50 10 49 9.4 96 96 N 8 13 30.08 1019 9 14 0.00 0.00
3:52 am 03:52 Clear 50 10 49 9.4 96 96 NNW 7 11 30.09 1019 10 16 0.00 0.00
4:52 am 04:52 Clear 49 9.4 48 8.9 97 97 N 6 9 30.11 1020 10 16 0.00 0.00
5:52 am 05:52 Mostly Clear 49 9.4 48 8.9 97 97 N 9 15 30.12 1020 10 16 0.00 0.00
6:24 am 06:24 Mostly Clear 48 9 46 8 94 94 N 7 11 30.18 1022 10 16 0.00 0.00
6:52 am 06:52 Mostly Clear 47 8.3 47 8.3 100 100 N 5 7 30.15 1021 10 16 0.00 0.00
7:52 am 07:52 Mostly Sunny 49 9.4 48 8.9 97 97 Calm 30.18 1022 8 13 0.00 0.00
8:52 am 08:52 Mostly Sunny 52 11.1 49 9.4 89 89 NNW 7 11 30.19 1022 10 16 0.00 0.00
9:52 am 09:52 Partly Cloudy 55 12.8 50 10 83 83 N 6 9 30.20 1023 10 16 0.00 0.00
10:52 am 10:52 Mostly Sunny 60 15.6 51 10.6 72 72 NNE 5 7 30.21 1023 10 16 0.00 0.00
11:52 am 11:52 Mostly Sunny 62 16.7 50 10 65 65 Calm 30.20 1023 10 16 0.00 0.00
12:52 pm 12:52 Mostly Sunny 64 17.8 49 9.4 58 58 VRB 3 6 30.18 1022 10 16 0.00 0.00
1:52 pm 13:52 Mostly Sunny 68 20 50 10 53 53 W 5 7 30.16 1021 10 16 0.00 0.00
2:52 pm 14:52 Mostly Sunny 68 20 48 8.9 49 49 E 3 6 30.11 1020 10 16 0.00 0.00
3:52 pm 15:52 Mostly Sunny 69 20.6 48 8.9 47 47 E 6 9 30.11 1020 10 16 0.00 0.00
4:52 pm 16:52 Mostly Sunny 70 21.1 48 8.9 46 46 SE 6 9 30.09 1019 10 16 0.00 0.00
5:52 pm 17:52 Mostly Sunny 70 21.1 48 8.9 46 46 SSE 6 9 30.09 1019 10 16 0.00 0.00
6:52 pm 18:52 Mostly Sunny 68 20 48 8.9 49 49 S 12 19 30.08 1019 10 16 0.00 0.00
7:52 pm 19:52 Partly Cloudy 64 17.8 50 10 60 60 SE 6 9 30.09 1019 10 16 0.00 0.00
8:52 pm 20:52 Partly Cloudy 60 15.6 51 10.6 72 72 SE 7 11 30.10 1019 10 16 0.00 0.00
9:52 pm 21:52 Partly Cloudy 59 15 50 10 72 72 SE 6 9 30.11 1020 10 16 0.00 0.00
10:52 pm 22:52 Partly Cloudy 58 14.4 50 10 75 75 SSE 7 11 30.11 1020 10 16 0.00 0.00
11:52 pm 23:52 Partly Cloudy 58 14.4 50 10 75 75 SSE 7 11 30.11 1020 10 16 0.00 0.00

Powered by AerisWeather